Content
SEND FEEDBACK

Daily
Averages
Monthly
Summary
United States of America

YIGO, GUAM


Home > North America > United States > Guam
Elevation: 530 feet     Latitude: 13 32N     Longitude: 144 53E

WEATHER
 
SELECT A DAY
Number of Records: 215,541;   Date Range: 1/1/95 - 12/18/14
 
SHARE

PRINT THIS DATA

[ ← Previous Day ]
WEATHER ALMANAC - MARCH 13, 2013
[ Next Day → ]
[ °C ]   °F
Weather ElementAverageHighLow
Temperature81.1 °F89.1 °F (12:54 pm)75.2 °F (1:17 am)
Dewpoint72.7 °F75 °F (7:54 am)71.1 °F (12:54 pm)
Humidity76.7 %94 % (1:17 am)55 % (12:54 pm)
Barometer29.85 in29.89 in (1:05 am)29.79 in (3:54 pm)
Wind Speed10.2 mph17.3 mph (10:54 am)
Wind Gust23 mph (2:54 pm)
Weather ElementAverage
Visibility9.5 mi
Wind DirectionENE (68.3 °)

Weather ElementTotal
Precipitation0.12 in
Cooling Degree Days17.2 (Base 65)
Growing Degree Days32.2 (Base 50)
Averaged from 29 records on March 13, 2013
WEATHER CONDITIONS BREAKOUT
WIND DIRECTION BREAKOUT
WEATHER BY HOUR - MARCH 13, 2013
[ °C ]   °F
Local TimeTemperatureDewpointHumidityBarometerVisibilityWind DirectionWind SpeedGust SpeedPrecipitationEventsConditions
1:05 AM77.0 °F73.4 °F89 %29.89 in2.5 miEast (90°)11.5 mph21.9 mph0.01 inRainHeavy Rain
1:17 AM75.2 °F73.4 °F94 %29.88 in3.0 miEast (90°)13.8 mph0.03 inRainLight Rain
1:39 AM75.2 °F73.4 °F94 %29.87 in10.0 miEast (90°)6.9 mph0.04 inOvercast
1:54 AM77.0 °F73.0 °F88 %29.85 in10.0 miEast (90°)6.9 mph0.04 inOvercast
2:05 AM75.2 °F73.4 °F94 %29.87 in10.0 miESE (110°)5.8 mphOvercast
2:13 AM75.2 °F71.6 °F89 %29.87 in9.0 miESE (120°)5.8 mph0.00 inRainLight Rain
2:34 AM75.2 °F71.6 °F89 %29.86 in10.0 miESE (120°)3.5 mph0.00 inOvercast
2:54 AM77.0 °F72.0 °F84 %29.83 in10.0 miEast (80°)3.5 mph0.00 inOvercast
3:54 AM78.1 °F73.0 °F84 %29.82 in10.0 miENE (60°)8.1 mphPartly Cloudy
4:54 AM78.1 °F73.0 °F84 %29.83 in10.0 miNE (50°)5.8 mphMostly Cloudy
5:54 AM78.1 °F73.0 °F84 %29.84 in10.0 miENE (60°)9.2 mphPartly Cloudy
6:54 AM79.0 °F73.0 °F82 %29.85 in10.0 miENE (60°)9.2 mphPartly Cloudy
7:54 AM81.0 °F75.0 °F82 %29.87 in10.0 miNE (40°)5.8 mphPartly Cloudy
8:54 AM82.9 °F73.0 °F72 %29.88 in10.0 miENE (70°)13.8 mphPartly Cloudy
9:54 AM86.0 °F73.0 °F65 %29.89 in10.0 miNE (50°)13.8 mph19.6 mphMostly Cloudy
10:54 AM87.1 °F72.0 °F61 %29.88 in10.0 miNE (50°)17.3 mphMostly Cloudy
11:54 AM86.0 °F72.0 °F63 %29.86 in10.0 miENE (60°)17.3 mphMostly Cloudy
12:54 PM89.1 °F71.1 °F55 %29.84 in10.0 miNE (50°)16.1 mphScattered Clouds
1:54 PM89.1 °F71.1 °F55 %29.82 in10.0 miNE (50°)15.0 mphPartly Cloudy
2:54 PM88.0 °F71.1 °F57 %29.80 in10.0 miENE (60°)16.1 mph23.0 mphScattered Clouds
3:54 PM86.0 °F71.1 °F61 %29.79 in10.0 miENE (60°)16.1 mph23.0 mphScattered Clouds
4:54 PM86.0 °F72.0 °F63 %29.81 in10.0 miNE (50°)16.1 mphClear
5:54 PM86.0 °F73.0 °F65 %29.82 in10.0 miENE (70°)11.5 mph17.3 mphScattered Clouds
6:54 PM82.9 °F73.9 °F74 %29.84 in10.0 miENE (60°)9.2 mphScattered Clouds
7:54 PM81.0 °F73.0 °F77 %29.86 in10.0 miENE (60°)10.4 mphPartly Cloudy
8:54 PM81.0 °F73.0 °F77 %29.88 in10.0 miENE (60°)6.9 mphClear
9:54 PM81.0 °F73.0 °F77 %29.89 in10.0 miENE (60°)6.9 mphPartly Cloudy
10:54 PM79.0 °F73.0 °F82 %29.89 in10.0 miNE (50°)5.8 mphClear
11:54 PM79.0 °F73.0 °F82 %29.88 in10.0 miENE (60°)8.1 mph0.00 inMostly Cloudy
Hourly data recorded from PGUM, located miles away from Yigo, Guam







STORIES FROM OUR PARTNERS